STARLINK-1551 (46075 NORAD) Tracking and Keplerian Element Data

This shows tracking and keplerian element data for the satellite.

Feedback or suggestion? Click here.




ElementValue
Catalog46075
NameSTARLINK-1551
Epoch Orbit1960
Epoch Day338.58478934
Epoch Year2020
RAAN85.2759
Inclination53.0027
Eccentricity0.0001576
Argument of Perigee85.8443
Mean Anonmoly274.2725
Mean Motion15.05585937
Decay Rate1.067E-05
L11 46075U 20055BA 20338.58478934 .00001067 00000-0 92385-4 0 9993
L22 46075 53.0027 85.2759 0001576 85.8443 274.2725 15.05585937 19601

Live tracking and technical data element details for STARLINK-1551 (NORAD 46075). STARLINK-1551 can be tracked NOW for your location showing map with azimuth and elevation plus other details from your city location.

Track the satellite on the map from your city or location and see movement details for azimuth, elevation, latitude, longitude, range, height, and movement on the map or in text.







IsCatalogInMostPopularTable: catalog: 46075, numindb: 24
Update: records affected: 1



GetName: 46075 STARLINK-1551

Hit Count: updated at: Sat, 05 Dec 2020 05:55:05 GMT